Weather History for Boscobel, WI

Change the Weather History Date:

Wednesday, October 19, 2011

  Actual Average (KPDC) Record (KPDC)
Temperature  
Mean Temperature 45 °F -  
Max Temperature 52 °F 59 °F 83 °F (1953)
Min Temperature 39 °F 35 °F 17 °F (1972)
Degree Days  
Heating Degree Days 20    
Moisture  
Dew Point 33 °F    
Average Humidity 61    
Maximum Humidity 77    
Minimum Humidity 46    
Precipitation  
Precipitation 0.00 in - - ()
Sea Level Pressure  
Sea Level Pressure 29.93 in    
Wind  
Wind Speed 9 mph (North)    
Max Wind Speed 16 mph    
Max Gust Speed 26 mph    
Visibility 10 miles    
Events      
Averages and records for this station are not official NWS values.
T = Trace of Precipitation, MM = Missing Value Source: NWS Daily Summary

Daily Weather History Graph

Daily Weather History Graph

Search for Another Location

Airport:

Trip Planner

Search our weather history database for the weather conditions in past years. The results will help you decide how hot, cold, wet, or windy it might be!

Date:

Astronomy

Oct. 19, 2011 Rise Set
Actual Time 7:20 AM CDT 6:13 PM CDT
Civil Twilight 6:52 AM CDT 6:42 PM CDT
Nautical Twilight 6:19 AM CDT 7:15 PM CDT
Astronomical Twilight 5:46 AM CDT 7:48 PM CDT
Moon 11:55 PM CDT (10/19) 1:56 PM CDT (10/19)
Length of Visible Light 11h 50m
Length of Day
10h 52m
Waning Gibbous, 54% of the Moon is Illuminated
Oct 19
Waning Gibbous
Oct 19
Last Quarter
Oct 26
New
Nov 2
First Quarter
Nov 10
Full

Hourly Weather History & Observations

Time (CDT) Temp. Windchill Dew Point Humidity Pressure Visibility Wind Dir Wind Speed Gust Speed Precip Events Conditions
12:19 AM 44.6 °F 40.7 °F 35.6 °F 71% 29.94 in 10.0 mi North 6.9 mph - N/A   Overcast
12:53 AM 44.1 °F 41.5 °F 36.0 °F 73% 29.95 in 10.0 mi North 4.6 mph - N/A   Overcast
2:53 AM 45.0 °F 41.8 °F 35.1 °F 68% 29.94 in 10.0 mi North 5.8 mph - N/A   Overcast
3:28 AM 44.6 °F 41.4 °F 35.6 °F 71% 29.93 in 10.0 mi NNE 5.8 mph - N/A   Overcast
3:35 AM 44.6 °F 40.7 °F 35.6 °F 71% 29.93 in 10.0 mi North 6.9 mph - N/A   Overcast
3:53 AM 45.0 °F 41.8 °F 35.1 °F 68% 29.94 in 10.0 mi North 5.8 mph - N/A   Overcast
4:53 AM 44.1 °F 40.1 °F 35.1 °F 71% 29.94 in 10.0 mi NNE 6.9 mph - N/A   Overcast
5:53 AM 43.0 °F 37.7 °F 33.1 °F 68% 29.96 in 10.0 mi North 9.2 mph 18.4 mph N/A   Mostly Cloudy
6:53 AM 39.9 °F 35.1 °F 32.0 °F 73% 29.97 in 10.0 mi NNE 6.9 mph - N/A   Clear
7:53 AM 39.9 °F 35.1 °F 33.1 °F 77% 29.98 in 10.0 mi North 6.9 mph - N/A   Clear
9:53 AM 45.0 °F 38.9 °F 34.0 °F 65% 29.98 in 10.0 mi North 12.7 mph - N/A   Overcast
10:30 AM 46.4 °F 41.1 °F 35.6 °F 66% 29.95 in 10.0 mi North 11.5 mph - N/A   Overcast
10:46 AM 46.4 °F 40.7 °F 33.8 °F 62% 29.95 in 10.0 mi North 12.7 mph 19.6 mph N/A   Overcast
10:53 AM 48.0 °F - 34.0 °F 58% 29.96 in 10.0 mi North 11.5 mph 19.6 mph N/A   Overcast
11:53 AM 50.0 °F - 32.0 °F 50% 29.95 in 10.0 mi North 16.1 mph 26.5 mph N/A   Overcast
12:53 PM 51.1 °F - 30.9 °F 46% 29.93 in 10.0 mi North 13.8 mph 24.2 mph N/A   Overcast
1:53 PM 51.1 °F - 32.0 °F 48% 29.91 in 10.0 mi North 13.8 mph 26.5 mph N/A   Overcast
2:53 PM 50.0 °F - 30.9 °F 48% 29.89 in 10.0 mi North 15.0 mph 23.0 mph N/A   Overcast
3:53 PM 50.0 °F - 32.0 °F 50% 29.90 in 10.0 mi North 11.5 mph 21.9 mph N/A   Overcast
4:53 PM 50.0 °F - 32.0 °F 50% 29.91 in 10.0 mi North 11.5 mph 18.4 mph N/A   Overcast
5:53 PM 50.0 °F - 30.9 °F 48% 29.89 in 10.0 mi North 9.2 mph 18.4 mph N/A   Overcast
6:53 PM 48.9 °F - 30.9 °F 50% 29.91 in 10.0 mi North 11.5 mph 20.7 mph N/A   Overcast
7:53 PM 48.9 °F - 30.9 °F 50% 29.91 in 10.0 mi NNW 8.1 mph - N/A   Overcast
9:53 PM 46.0 °F 41.4 °F 34.0 °F 63% 29.88 in 10.0 mi North 9.2 mph - N/A   Partly Cloudy
10:53 PM 45.0 °F 39.7 °F 34.0 °F 65% 29.87 in 10.0 mi North 10.4 mph 18.4 mph N/A   Clear
11:53 PM 45.0 °F 38.5 °F 34.0 °F 65% 29.86 in 10.0 mi North 13.8 mph 20.7 mph N/A   Partly Cloudy